This is the latest recevied weather packets stored in our database for station/object KE8GJZ-2. If no packets are shown the sender has not sent any weather packets the latest 10 day(s).
| Time | Temp. | Humidity | Pressure | Rain* | Wind** | Luminosity | Snow |
|---|---|---|---|---|---|---|---|
| 1777726543 | 4.44° C | 83% | 1020.6 hPa | 0 mm | - | 291 W/m² | - |
| 1777726241 | 4.44° C | 84% | 1020.7 hPa | 0 mm | - | 266 W/m² | - |
| 1777725937 | 5° C | 83% | 1020.5 hPa | 0 mm | - | 251 W/m² | - |
| 1777725634 | 4.44° C | 85% | 1020.7 hPa | 0 mm | - | 239 W/m² | - |
| 1777725332 | 3.89° C | 84% | 1020.7 hPa | 0 mm | - | 225 W/m² | - |
| 1777725029 | 3.89° C | 86% | 1020.7 hPa | 0 mm | - | 219 W/m² | - |
| 1777724725 | 3.89° C | 85% | 1020.8 hPa | 0 mm | - | 223 W/m² | - |
| 1777724423 | 3.89° C | 84% | 1020.8 hPa | 0 mm | - | 198 W/m² | - |
| 1777724120 | 3.89° C | 84% | 1020.6 hPa | 0 mm | - | 173 W/m² | - |
| 1777723818 | 3.89° C | 85% | 1020.7 hPa | 0 mm | - | 147 W/m² | - |
| 1777723514 | 3.33° C | 85% | 1020.6 hPa | 0 mm | - | 140 W/m² | - |
| 1777723211 | 3.33° C | 87% | 1020.9 hPa | 0 mm | - | 124 W/m² | - |
| 1777722909 | 3.33° C | 87% | 1020.7 hPa | 0 mm | - | 108 W/m² | - |
| 1777722604 | 3.33° C | 87% | 1020.7 hPa | 0 mm | - | 89 W/m² | - |
| 1777722301 | 3.33° C | 88% | 1020.8 hPa | 0 mm | - | 76 W/m² | - |
| 1777721998 | 2.78° C | 88% | 1020.6 hPa | 0 mm | - | 46 W/m² | - |
| 1777721695 | 3.33° C | 88% | 1020.5 hPa | 0 mm | - | 41 W/m² | - |
| 1777721394 | 2.78° C | 88% | 1020.6 hPa | 0 mm | - | 43 W/m² | - |
| 1777721091 | 2.78° C | 88% | 1020.5 hPa | 0 mm | - | 37 W/m² | - |
| 1777720789 | 2.22° C | 90% | 1020.5 hPa | 0 mm | - | 32 W/m² | - |
| 1777720486 | 2.22° C | 91% | 1020.5 hPa | 0 mm | - | 27 W/m² | - |
| 1777720183 | 1.67° C | 91% | 1020.5 hPa | 0 mm | - | 21 W/m² | - |
| 1777719881 | 1.67° C | 91% | 1020.5 hPa | 0 mm | - | 16 W/m² | - |
| 1777719578 | 1.67° C | 91% | 1020.4 hPa | 0 mm | - | 13 W/m² | - |
| 1777719275 | 1.67° C | 90% | 1020.4 hPa | 0 mm | - | 10 W/m² | - |
* Rain latest hour (hover to see other rain measurements)
** Current wind speed in m/s (hover to see current wind gust speed)